TimeCDT,TemperatureF,Dew PointF,Humidity,Sea Level PressureIn,VisibilityMPH,Wind Direction,Wind SpeedMPH,Gust SpeedMPH,PrecipitationIn,Events,Conditions,WindDirDegrees,DateUTC
12:53 AM,73.9,72.0,93,29.98,10.0,SSE,6.9,-,N/A,,Overcast,150,2013-05-30 05:53:00
1:53 AM,75.0,72.0,90,29.97,10.0,SSE,8.1,17.3,N/A,,Overcast,150,2013-05-30 06:53:00
2:53 AM,73.9,72.0,93,29.95,10.0,SE,5.8,-,N/A,,Overcast,140,2013-05-30 07:53:00
3:11 AM,73.4,71.6,94,29.97,10.0,SSE,6.9,-,N/A,,Overcast,150,2013-05-30 08:11:00
3:29 AM,73.4,71.6,94,29.97,10.0,SSE,5.8,-,N/A,,Scattered Clouds,150,2013-05-30 08:29:00
3:53 AM,73.9,72.0,93,29.96,8.0,SE,5.8,-,0.00,Rain,Light Rain,140,2013-05-30 08:53:00
4:00 AM,73.4,71.6,94,29.97,10.0,SE,5.8,-,0.00,,Overcast,140,2013-05-30 09:00:00
4:08 AM,73.4,71.6,94,29.97,10.0,SE,5.8,-,0.00,,Overcast,140,2013-05-30 09:08:00
4:53 AM,73.9,72.0,93,29.96,10.0,SSE,8.1,-,0.00,,Overcast,150,2013-05-30 09:53:00
5:53 AM,73.9,72.0,93,29.96,6.0,SE,4.6,-,0.00,,Overcast,140,2013-05-30 10:53:00
6:53 AM,73.9,71.1,91,29.98,7.0,SE,6.9,-,N/A,,Overcast,130,2013-05-30 11:53:00
7:13 AM,73.4,71.6,94,30.01,2.5,SSE,6.9,-,0.01,Rain-Thunderstorm,Rain,150,2013-05-30 12:13:00
7:24 AM,73.4,71.6,94,30.01,3.0,SE,5.8,-,0.02,Rain,Light Rain,140,2013-05-30 12:24:00
7:46 AM,73.4,71.6,94,30.01,4.0,SE,8.1,-,0.02,Rain,Light Rain,140,2013-05-30 12:46:00
7:53 AM,73.0,72.0,96,29.99,3.0,SE,4.6,-,0.02,Rain,Light Rain,140,2013-05-30 12:53:00
8:41 AM,75.2,73.4,94,30.02,7.0,SSE,8.1,-,0.01,,Overcast,150,2013-05-30 13:41:00
8:53 AM,75.9,73.0,91,30.01,10.0,SSE,8.1,-,0.01,,Overcast,150,2013-05-30 13:53:00
9:12 AM,75.2,73.4,94,30.02,10.0,SE,6.9,-,N/A,,Mostly Cloudy,140,2013-05-30 14:12:00
9:53 AM,77.0,73.0,88,30.01,10.0,SSE,6.9,-,N/A,,Mostly Cloudy,150,2013-05-30 14:53:00
10:53 AM,82.9,71.1,67,30.01,10.0,SE,10.4,18.4,N/A,,Scattered Clouds,140,2013-05-30 15:53:00
11:53 AM,82.9,72.0,69,30.01,10.0,SSE,9.2,-,N/A,,Overcast,150,2013-05-30 16:53:00
12:53 PM,82.9,71.1,67,29.99,10.0,SSE,15.0,19.6,N/A,,Mostly Cloudy,160,2013-05-30 17:53:00
1:53 PM,86.0,71.1,61,29.96,10.0,SSE,12.7,-,0.00,,Scattered Clouds,160,2013-05-30 18:53:00
2:53 PM,81.0,69.1,67,29.96,10.0,SSE,10.4,-,0.00,,Mostly Cloudy,150,2013-05-30 19:53:00
3:53 PM,81.0,73.9,79,29.94,10.0,Variable,5.8,-,0.00,,Overcast,0,2013-05-30 20:53:00
4:17 PM,75.2,71.6,89,29.98,1.8,SSE,19.6,36.8,0.07,Rain,Heavy Rain,150,2013-05-30 21:17:00
4:28 PM,75.2,71.6,89,29.97,3.0,Variable,5.8,-,0.14,Rain,Light Rain,0,2013-05-30 21:28:00
4:53 PM,79.0,73.9,84,29.94,10.0,SSE,6.9,-,0.14,,Mostly Cloudy,160,2013-05-30 21:53:00
5:53 PM,78.1,73.9,87,29.94,10.0,SE,6.9,-,N/A,,Scattered Clouds,130,2013-05-30 22:53:00
6:53 PM,79.0,72.0,79,29.94,10.0,SE,13.8,18.4,N/A,,Scattered Clouds,140,2013-05-30 23:53:00
7:53 PM,77.0,71.1,82,29.95,10.0,SSE,10.4,21.9,N/A,,Scattered Clouds,150,2013-05-31 00:53:00
8:26 PM,75.2,71.6,89,29.98,10.0,SSE,10.4,18.4,N/A,,Mostly Cloudy,160,2013-05-31 01:26:00
8:53 PM,75.9,71.1,85,29.97,10.0,SSE,9.2,-,N/A,,Overcast,150,2013-05-31 01:53:00
9:42 PM,75.2,71.6,89,30.00,10.0,SSE,9.2,-,N/A,,Overcast,150,2013-05-31 02:42:00
9:53 PM,75.0,71.1,87,29.99,10.0,SSE,10.4,-,N/A,,Overcast,150,2013-05-31 02:53:00
10:53 PM,75.0,71.1,87,30.00,10.0,SSE,8.1,-,N/A,,Overcast,150,2013-05-31 03:53:00
11:53 PM,75.0,72.0,90,29.99,10.0,SE,9.2,18.4,N/A,,Overcast,140,2013-05-31 04:53:00